Year,Month,Day,Hour,Minute,Value (Times are PST for insolation in W/m^2)
2020,07,05,00,00,0.00
2020,07,05,00,01,0.00
2020,07,05,00,02,0.00
2020,07,05,00,03,0.00
2020,07,05,00,04,0.00
2020,07,05,00,05,0.00
2020,07,05,00,06,0.00
2020,07,05,00,07,0.00
2020,07,05,00,08,0.00
2020,07,05,00,09,0.00
2020,07,05,00,10,0.00
2020,07,05,00,11,0.00
2020,07,05,00,12,0.00
2020,07,05,00,13,0.00
2020,07,05,00,14,0.00
2020,07,05,00,15,0.00
2020,07,05,00,16,0.00
2020,07,05,00,17,0.00
2020,07,05,00,18,0.00
2020,07,05,00,19,0.00
2020,07,05,00,20,0.00
2020,07,05,00,21,0.00
2020,07,05,00,22,0.00
2020,07,05,00,23,0.00
2020,07,05,00,24,0.00
2020,07,05,00,25,0.00
2020,07,05,00,26,0.00
2020,07,05,00,27,0.00
2020,07,05,00,28,0.00
2020,07,05,00,29,0.00
2020,07,05,00,30,0.00
2020,07,05,00,31,0.00
2020,07,05,00,32,0.00
2020,07,05,00,33,0.00
2020,07,05,00,34,0.00
2020,07,05,00,35,0.00
2020,07,05,00,36,0.00
2020,07,05,00,37,0.00
2020,07,05,00,38,0.00
2020,07,05,00,39,0.00
2020,07,05,00,40,0.00
2020,07,05,00,41,0.00
2020,07,05,00,42,0.00
2020,07,05,00,43,0.00
2020,07,05,00,44,0.00
2020,07,05,00,45,0.00
2020,07,05,00,46,0.00
2020,07,05,00,47,0.00
2020,07,05,00,48,0.00
2020,07,05,00,49,0.00
2020,07,05,00,50,0.00
2020,07,05,00,51,0.00
2020,07,05,00,52,0.00
2020,07,05,00,53,0.00
2020,07,05,00,54,0.00
2020,07,05,00,55,0.00
2020,07,05,00,56,0.00
2020,07,05,00,57,0.00
2020,07,05,00,58,0.00
2020,07,05,00,59,0.00
2020,07,05,01,00,0.00
2020,07,05,01,01,0.00
2020,07,05,01,02,0.00
2020,07,05,01,03,0.00
2020,07,05,01,04,0.00
2020,07,05,01,05,0.00
2020,07,05,01,06,0.00
2020,07,05,01,07,0.00
2020,07,05,01,08,0.00
2020,07,05,01,09,0.00
2020,07,05,01,10,0.00
2020,07,05,01,11,0.00
2020,07,05,01,12,0.00
2020,07,05,01,13,0.00
2020,07,05,01,14,0.00
2020,07,05,01,15,0.00
2020,07,05,01,16,0.00
2020,07,05,01,17,0.00
2020,07,05,01,18,0.00
2020,07,05,01,19,0.00
2020,07,05,01,20,0.00
2020,07,05,01,21,0.00
2020,07,05,01,22,0.00
2020,07,05,01,23,0.00
2020,07,05,01,24,0.00
2020,07,05,01,25,0.00
2020,07,05,01,26,0.00
2020,07,05,01,27,0.00
2020,07,05,01,28,0.00
2020,07,05,01,29,0.00
2020,07,05,01,30,0.00
2020,07,05,01,31,0.00
2020,07,05,01,32,0.00
2020,07,05,01,33,0.00
2020,07,05,01,34,0.00
2020,07,05,01,35,0.00
2020,07,05,01,36,0.00
2020,07,05,01,37,0.00
2020,07,05,01,38,0.00
2020,07,05,01,39,0.00
2020,07,05,01,40,0.00
2020,07,05,01,41,0.00
2020,07,05,01,42,0.00
2020,07,05,01,43,0.00
2020,07,05,01,44,0.00
2020,07,05,01,45,0.00
2020,07,05,01,46,0.00
2020,07,05,01,47,0.00
2020,07,05,01,48,0.00
2020,07,05,01,49,0.00
2020,07,05,01,50,0.00
2020,07,05,01,51,0.00
2020,07,05,01,52,0.00
2020,07,05,01,53,0.00
2020,07,05,01,54,0.00
2020,07,05,01,55,0.00
2020,07,05,01,56,0.00
2020,07,05,01,57,0.00
2020,07,05,01,58,0.00
2020,07,05,01,59,0.00
2020,07,05,02,00,0.00
2020,07,05,02,01,0.00
2020,07,05,02,02,0.00
2020,07,05,02,03,0.00
2020,07,05,02,04,0.00
2020,07,05,02,05,0.00
2020,07,05,02,06,0.00
2020,07,05,02,07,0.00
2020,07,05,02,08,0.00
2020,07,05,02,09,0.00
2020,07,05,02,10,0.00
2020,07,05,02,11,0.00
2020,07,05,02,12,0.00
2020,07,05,02,13,0.00
2020,07,05,02,14,0.00
2020,07,05,02,15,0.00
2020,07,05,02,16,0.00
2020,07,05,02,17,0.00
2020,07,05,02,18,0.00
2020,07,05,02,19,0.00
2020,07,05,02,20,0.00
2020,07,05,02,21,0.00
2020,07,05,02,22,0.00
2020,07,05,02,23,0.00
2020,07,05,02,24,0.00
2020,07,05,02,25,0.00
2020,07,05,02,26,0.00
2020,07,05,02,27,0.00
2020,07,05,02,28,0.00
2020,07,05,02,29,0.00
2020,07,05,02,30,0.00
2020,07,05,02,31,0.00
2020,07,05,02,32,0.00
2020,07,05,02,33,0.00
2020,07,05,02,34,0.00
2020,07,05,02,35,0.00
2020,07,05,02,36,0.00
2020,07,05,02,37,0.00
2020,07,05,02,38,0.00
2020,07,05,02,39,0.00
2020,07,05,02,40,0.00
2020,07,05,02,41,0.00
2020,07,05,02,42,0.00
2020,07,05,02,43,0.00
2020,07,05,02,44,0.00
2020,07,05,02,45,0.00
2020,07,05,02,46,0.00
2020,07,05,02,47,0.00
2020,07,05,02,48,0.00
2020,07,05,02,49,0.00
2020,07,05,02,50,0.00
2020,07,05,02,51,0.00
2020,07,05,02,52,0.00
2020,07,05,02,53,0.00
2020,07,05,02,54,0.00
2020,07,05,02,55,0.00
2020,07,05,02,56,0.00
2020,07,05,02,57,0.00
2020,07,05,02,58,0.00
2020,07,05,02,59,0.00
2020,07,05,03,00,0.00
2020,07,05,03,01,0.00
2020,07,05,03,02,0.00
2020,07,05,03,03,0.00
2020,07,05,03,04,0.00
2020,07,05,03,05,0.00
2020,07,05,03,06,0.00
2020,07,05,03,07,0.00
2020,07,05,03,08,0.00
2020,07,05,03,09,0.00
2020,07,05,03,10,0.00
2020,07,05,03,11,0.00
2020,07,05,03,12,0.00
2020,07,05,03,13,0.00
2020,07,05,03,14,0.00
2020,07,05,03,15,0.00
2020,07,05,03,16,0.00
2020,07,05,03,17,0.00
2020,07,05,03,18,0.00
2020,07,05,03,19,0.00
2020,07,05,03,20,0.00
2020,07,05,03,21,0.00
2020,07,05,03,22,0.00
2020,07,05,03,23,0.00
2020,07,05,03,24,0.00
2020,07,05,03,25,0.00
2020,07,05,03,26,0.00
2020,07,05,03,27,0.00
2020,07,05,03,28,0.00
2020,07,05,03,29,0.00
2020,07,05,03,30,0.00
2020,07,05,03,31,0.00
2020,07,05,03,32,0.00
2020,07,05,03,33,0.00
2020,07,05,03,34,0.00
2020,07,05,03,35,0.00
2020,07,05,03,36,0.00
2020,07,05,03,37,0.00
2020,07,05,03,38,0.00
2020,07,05,03,39,0.00
2020,07,05,03,40,0.00
2020,07,05,03,41,0.00
2020,07,05,03,42,0.00
2020,07,05,03,43,0.00
2020,07,05,03,44,0.00
2020,07,05,03,45,0.00
2020,07,05,03,46,0.00
2020,07,05,03,47,0.00
2020,07,05,03,48,0.00
2020,07,05,03,49,0.00
2020,07,05,03,50,0.00
2020,07,05,03,51,0.00
2020,07,05,03,52,0.00
2020,07,05,03,53,0.00
2020,07,05,03,54,0.00
2020,07,05,03,55,0.00
2020,07,05,03,56,0.00
2020,07,05,03,57,0.00
2020,07,05,03,58,0.00
2020,07,05,03,59,0.00
2020,07,05,04,00,0.00
2020,07,05,04,01,0.00
2020,07,05,04,02,0.00
2020,07,05,04,03,0.00
2020,07,05,04,04,0.00
2020,07,05,04,05,0.00
2020,07,05,04,06,0.00
2020,07,05,04,07,0.00
2020,07,05,04,08,0.00
2020,07,05,04,09,0.00
2020,07,05,04,10,0.00
2020,07,05,04,11,0.00
2020,07,05,04,12,0.00
2020,07,05,04,13,0.00
2020,07,05,04,14,0.00
2020,07,05,04,15,0.00
2020,07,05,04,16,0.00
2020,07,05,04,17,0.00
2020,07,05,04,18,0.00
2020,07,05,04,19,0.00
2020,07,05,04,20,0.00
2020,07,05,04,21,0.00
2020,07,05,04,22,0.00
2020,07,05,04,23,0.00
2020,07,05,04,24,0.00
2020,07,05,04,25,0.00
2020,07,05,04,26,0.00
2020,07,05,04,27,0.00
2020,07,05,04,28,0.00
2020,07,05,04,29,0.00
2020,07,05,04,30,0.00
2020,07,05,04,31,0.00
2020,07,05,04,32,0.00
2020,07,05,04,33,0.00
2020,07,05,04,34,0.00
2020,07,05,04,35,0.00
2020,07,05,04,36,0.00
2020,07,05,04,37,0.00
2020,07,05,04,38,0.00
2020,07,05,04,39,0.00
2020,07,05,04,40,0.00
2020,07,05,04,41,0.00
2020,07,05,04,42,0.00
2020,07,05,04,43,0.00
2020,07,05,04,44,0.00
2020,07,05,04,45,0.00
2020,07,05,04,46,0.00
2020,07,05,04,47,0.00
2020,07,05,04,48,0.00
2020,07,05,04,49,0.00
2020,07,05,04,50,0.00
2020,07,05,04,51,0.00
2020,07,05,04,52,0.00
2020,07,05,04,53,0.00
2020,07,05,04,54,0.00
2020,07,05,04,55,0.00
2020,07,05,04,56,0.00
2020,07,05,04,57,0.00
2020,07,05,04,58,0.00
2020,07,05,04,59,0.00
2020,07,05,05,00,0.00
2020,07,05,05,01,0.00
2020,07,05,05,02,0.00
2020,07,05,05,03,0.00
2020,07,05,05,04,0.00
2020,07,05,05,05,0.00
2020,07,05,05,06,0.00
2020,07,05,05,07,0.00
2020,07,05,05,08,0.00
2020,07,05,05,09,0.00
2020,07,05,05,10,0.00
2020,07,05,05,11,0.00
2020,07,05,05,12,0.00
2020,07,05,05,13,0.00
2020,07,05,05,14,0.00
2020,07,05,05,15,0.00
2020,07,05,05,16,0.00
2020,07,05,05,17,0.00
2020,07,05,05,18,0.00
2020,07,05,05,19,0.00
2020,07,05,05,20,0.00
2020,07,05,05,21,4.20
2020,07,05,05,22,5.00
2020,07,05,05,23,5.00
2020,07,05,05,24,5.00
2020,07,05,05,25,5.00
2020,07,05,05,26,5.00
2020,07,05,05,27,6.10
2020,07,05,05,28,7.00
2020,07,05,05,29,7.00
2020,07,05,05,30,7.00
2020,07,05,05,31,7.10
2020,07,05,05,32,9.00
2020,07,05,05,33,9.00
2020,07,05,05,34,9.00
2020,07,05,05,35,9.00
2020,07,05,05,36,10.30
2020,07,05,05,37,11.00
2020,07,05,05,38,11.00
2020,07,05,05,39,11.00
2020,07,05,05,40,11.10
2020,07,05,05,41,12.00
2020,07,05,05,42,12.00
2020,07,05,05,43,12.00
2020,07,05,05,44,12.00
2020,07,05,05,45,12.00
2020,07,05,05,46,13.50
2020,07,05,05,47,14.00
2020,07,05,05,48,14.00
2020,07,05,05,49,14.00
2020,07,05,05,50,14.40
2020,07,05,05,51,16.00
2020,07,05,05,52,16.00
2020,07,05,05,53,16.00
2020,07,05,05,54,16.00
2020,07,05,05,55,17.60
2020,07,05,05,56,18.00
2020,07,05,05,57,18.00
2020,07,05,05,58,18.00
2020,07,05,05,59,18.30
2020,07,05,06,00,19.00
2020,07,05,06,01,19.00
2020,07,05,06,02,19.00
2020,07,05,06,03,19.00
2020,07,05,06,04,20.70
2020,07,05,06,05,21.00
2020,07,05,06,06,21.00
2020,07,05,06,07,21.00
2020,07,05,06,08,21.00
2020,07,05,06,09,21.80
2020,07,05,06,10,23.00
2020,07,05,06,11,23.00
2020,07,05,06,12,23.00
2020,07,05,06,13,23.00
2020,07,05,06,14,23.10
2020,07,05,06,15,25.00
2020,07,05,06,16,25.00
2020,07,05,06,17,25.00
2020,07,05,06,18,25.00
2020,07,05,06,19,25.00
2020,07,05,06,20,25.70
2020,07,05,06,21,26.00
2020,07,05,06,22,26.00
2020,07,05,06,23,26.00
2020,07,05,06,24,26.00
2020,07,05,06,25,26.00
2020,07,05,06,26,26.80
2020,07,05,06,27,28.00
2020,07,05,06,28,28.00
2020,07,05,06,29,28.00
2020,07,05,06,30,28.00
2020,07,05,06,31,28.00
2020,07,05,06,32,28.30
2020,07,05,06,33,30.00
2020,07,05,06,34,30.00
2020,07,05,06,35,30.00
2020,07,05,06,36,30.00
2020,07,05,06,37,30.00
2020,07,05,06,38,30.00
2020,07,05,06,39,30.00
2020,07,05,06,40,31.90
2020,07,05,06,41,32.00
2020,07,05,06,42,32.00
2020,07,05,06,43,32.00
2020,07,05,06,44,32.00
2020,07,05,06,45,32.00
2020,07,05,06,46,32.70
2020,07,05,06,47,33.00
2020,07,05,06,48,33.00
2020,07,05,06,49,33.00
2020,07,05,06,50,33.00
2020,07,05,06,51,33.00
2020,07,05,06,52,33.00
2020,07,05,06,53,33.00
2020,07,05,06,54,33.00
2020,07,05,06,55,34.50
2020,07,05,06,56,35.00
2020,07,05,06,57,35.00
2020,07,05,06,58,35.00
2020,07,05,06,59,35.00
2020,07,05,07,00,35.00
2020,07,05,07,01,35.00
2020,07,05,07,02,35.00
2020,07,05,07,03,36.40
2020,07,05,07,04,37.00
2020,07,05,07,05,37.00
2020,07,05,07,06,37.00
2020,07,05,07,07,37.00
2020,07,05,07,08,37.00
2020,07,05,07,09,37.80
2020,07,05,07,10,39.50
2020,07,05,07,11,40.00
2020,07,05,07,12,40.00
2020,07,05,07,13,45.80
2020,07,05,07,14,45.80
2020,07,05,07,15,40.00
2020,07,05,07,16,40.00
2020,07,05,07,17,40.00
2020,07,05,07,18,44.00
2020,07,05,07,19,51.10
2020,07,05,07,20,71.70
2020,07,05,07,21,106.80
2020,07,05,07,22,131.30
2020,07,05,07,23,107.40
2020,07,05,07,24,81.30
2020,07,05,07,25,102.50
2020,07,05,07,26,117.10
2020,07,05,07,27,98.50
2020,07,05,07,28,79.90
2020,07,05,07,29,84.10
2020,07,05,07,30,114.10
2020,07,05,07,31,180.60
2020,07,05,07,32,229.30
2020,07,05,07,33,232.40
2020,07,05,07,34,234.60
2020,07,05,07,35,236.40
2020,07,05,07,36,239.10
2020,07,05,07,37,242.30
2020,07,05,07,38,245.20
2020,07,05,07,39,247.70
2020,07,05,07,40,250.10
2020,07,05,07,41,253.30
2020,07,05,07,42,255.80
2020,07,05,07,43,258.70
2020,07,05,07,44,261.90
2020,07,05,07,45,265.70
2020,07,05,07,46,268.40
2020,07,05,07,47,271.30
2020,07,05,07,48,275.60
2020,07,05,07,49,283.40
2020,07,05,07,50,288.10
2020,07,05,07,51,292.90
2020,07,05,07,52,296.70
2020,07,05,07,53,299.90
2020,07,05,07,54,302.90
2020,07,05,07,55,306.90
2020,07,05,07,56,310.50
2020,07,05,07,57,312.90
2020,07,05,07,58,314.10
2020,07,05,07,59,320.50
2020,07,05,08,00,323.00
2020,07,05,08,01,326.90
2020,07,05,08,02,330.70
2020,07,05,08,03,333.40
2020,07,05,08,04,337.90
2020,07,05,08,05,340.80
2020,07,05,08,06,344.90
2020,07,05,08,07,346.80
2020,07,05,08,08,350.80
2020,07,05,08,09,354.50
2020,07,05,08,10,358.00
2020,07,05,08,11,360.70
2020,07,05,08,12,364.90
2020,07,05,08,13,366.80
2020,07,05,08,14,370.70
2020,07,05,08,15,373.50
2020,07,05,08,16,376.50
2020,07,05,08,17,379.00
2020,07,05,08,18,381.90
2020,07,05,08,19,384.10
2020,07,05,08,20,386.90
2020,07,05,08,21,389.60
2020,07,05,08,22,391.80
2020,07,05,08,23,395.80
2020,07,05,08,24,397.60
2020,07,05,08,25,401.50
2020,07,05,08,26,404.10
2020,07,05,08,27,407.00
2020,07,05,08,28,409.20
2020,07,05,08,29,412.10
2020,07,05,08,30,414.60
2020,07,05,08,31,416.80
2020,07,05,08,32,418.40
2020,07,05,08,33,422.40
2020,07,05,08,34,424.90
2020,07,05,08,35,427.90
2020,07,05,08,36,430.60
2020,07,05,08,37,433.30
2020,07,05,08,38,436.90
2020,07,05,08,39,438.80
2020,07,05,08,40,440.80
2020,07,05,08,41,441.60
2020,07,05,08,42,446.80
2020,07,05,08,43,450.70
2020,07,05,08,44,452.90
2020,07,05,08,45,455.70
2020,07,05,08,46,458.30
2020,07,05,08,47,461.40
2020,07,05,08,48,463.80
2020,07,05,08,49,466.10
2020,07,05,08,50,468.60
2020,07,05,08,51,471.70
2020,07,05,08,52,474.30
2020,07,05,08,53,477.00
2020,07,05,08,54,479.30
2020,07,05,08,55,481.40
2020,07,05,08,56,484.40
2020,07,05,08,57,488.60
2020,07,05,08,58,490.40
2020,07,05,08,59,494.00
2020,07,05,09,00,494.70
2020,07,05,09,01,497.30
2020,07,05,09,02,500.10
2020,07,05,09,03,502.90
2020,07,05,09,04,505.60
2020,07,05,09,05,507.70
2020,07,05,09,06,510.00
2020,07,05,09,07,512.50
2020,07,05,09,08,515.60
2020,07,05,09,09,517.70
2020,07,05,09,10,520.50
2020,07,05,09,11,523.20
2020,07,05,09,12,526.10
2020,07,05,09,13,528.60
2020,07,05,09,14,529.00
2020,07,05,09,15,534.20
2020,07,05,09,16,536.40
2020,07,05,09,17,539.00
2020,07,05,09,18,541.80
2020,07,05,09,19,544.10
2020,07,05,09,20,546.80
2020,07,05,09,21,548.00
2020,07,05,09,22,551.40
2020,07,05,09,23,553.90
2020,07,05,09,24,555.70
2020,07,05,09,25,559.00
2020,07,05,09,26,559.70
2020,07,05,09,27,562.00
2020,07,05,09,28,563.60
2020,07,05,09,29,566.50
2020,07,05,09,30,569.60
2020,07,05,09,31,570.80
2020,07,05,09,32,575.10
2020,07,05,09,33,578.40
2020,07,05,09,34,580.60
2020,07,05,09,35,582.80
2020,07,05,09,36,585.40
2020,07,05,09,37,588.20
2020,07,05,09,38,591.10
2020,07,05,09,39,592.00
2020,07,05,09,40,595.90
2020,07,05,09,41,598.10
2020,07,05,09,42,599.40
2020,07,05,09,43,602.40
2020,07,05,09,44,605.40
2020,07,05,09,45,607.10
2020,07,05,09,46,609.30
2020,07,05,09,47,612.30
2020,07,05,09,48,614.70
2020,07,05,09,49,617.00
2020,07,05,09,50,619.30
2020,07,05,09,51,621.80
2020,07,05,09,52,624.80
2020,07,05,09,53,626.90
2020,07,05,09,54,629.70
2020,07,05,09,55,632.40
2020,07,05,09,56,634.70
2020,07,05,09,57,637.80
2020,07,05,09,58,640.20
2020,07,05,09,59,642.20
2020,07,05,10,00,643.60
2020,07,05,10,01,645.90
2020,07,05,10,02,648.60
2020,07,05,10,03,651.30
2020,07,05,10,04,653.40
2020,07,05,10,05,655.60
2020,07,05,10,06,657.10
2020,07,05,10,07,659.60
2020,07,05,10,08,663.00
2020,07,05,10,09,664.10
2020,07,05,10,10,666.90
2020,07,05,10,11,669.10
2020,07,05,10,12,670.70
2020,07,05,10,13,674.10
2020,07,05,10,14,676.70
2020,07,05,10,15,679.00
2020,07,05,10,16,680.90
2020,07,05,10,17,684.00
2020,07,05,10,18,684.80
2020,07,05,10,19,686.50
2020,07,05,10,20,688.20
2020,07,05,10,21,690.40
2020,07,05,10,22,692.60
2020,07,05,10,23,695.80
2020,07,05,10,24,696.20
2020,07,05,10,25,698.40
2020,07,05,10,26,700.40
2020,07,05,10,27,701.90
2020,07,05,10,28,705.10
2020,07,05,10,29,707.70
2020,07,05,10,30,709.60
2020,07,05,10,31,711.70
2020,07,05,10,32,713.90
2020,07,05,10,33,714.50
2020,07,05,10,34,717.00
2020,07,05,10,35,718.70
2020,07,05,10,36,721.00
2020,07,05,10,37,724.20
2020,07,05,10,38,726.00
2020,07,05,10,39,728.40
2020,07,05,10,40,729.00
2020,07,05,10,41,731.20
2020,07,05,10,42,733.40
2020,07,05,10,43,735.70
2020,07,05,10,44,737.40
2020,07,05,10,45,739.00
2020,07,05,10,46,741.30
2020,07,05,10,47,743.50
2020,07,05,10,48,744.90
2020,07,05,10,49,747.00
2020,07,05,10,50,749.00
2020,07,05,10,51,749.60
2020,07,05,10,52,751.30
2020,07,05,10,53,753.70
2020,07,05,10,54,756.00
2020,07,05,10,55,757.40
2020,07,05,10,56,758.80
2020,07,05,10,57,760.80
2020,07,05,10,58,763.30
2020,07,05,10,59,766.00
2020,07,05,11,00,766.70
2020,07,05,11,01,768.00
2020,07,05,11,02,769.10
2020,07,05,11,03,771.20
2020,07,05,11,04,772.00
2020,07,05,11,05,776.20
2020,07,05,11,06,778.80
2020,07,05,11,07,779.20
2020,07,05,11,08,780.00
2020,07,05,11,09,780.00
2020,07,05,11,10,781.80
2020,07,05,11,11,784.00
2020,07,05,11,12,785.30
2020,07,05,11,13,787.50
2020,07,05,11,14,788.80
2020,07,05,11,15,788.20
2020,07,05,11,16,791.30
2020,07,05,11,17,793.50
2020,07,05,11,18,795.40
2020,07,05,11,19,797.10
2020,07,05,11,20,798.00
2020,07,05,11,21,799.30
2020,07,05,11,22,801.60
2020,07,05,11,23,802.90
2020,07,05,11,24,803.20
2020,07,05,11,25,805.40
2020,07,05,11,26,807.60
2020,07,05,11,27,809.50
2020,07,05,11,28,810.00
2020,07,05,11,29,811.30
2020,07,05,11,30,812.00
2020,07,05,11,31,813.70
2020,07,05,11,32,815.90
2020,07,05,11,33,817.00
2020,07,05,11,34,817.50
2020,07,05,11,35,819.70
2020,07,05,11,36,821.90
2020,07,05,11,37,823.00
2020,07,05,11,38,823.70
2020,07,05,11,39,824.00
2020,07,05,11,40,827.60
2020,07,05,11,41,828.10
2020,07,05,11,42,830.00
2020,07,05,11,43,830.30
2020,07,05,11,44,831.00
2020,07,05,11,45,831.00
2020,07,05,11,46,833.30
2020,07,05,11,47,835.00
2020,07,05,11,48,836.70
2020,07,05,11,49,837.00
2020,07,05,11,50,838.30
2020,07,05,11,51,840.00
2020,07,05,11,52,840.60
2020,07,05,11,53,842.00
2020,07,05,11,54,843.10
2020,07,05,11,55,844.00
2020,07,05,11,56,845.50
2020,07,05,11,57,846.00
2020,07,05,11,58,847.10
2020,07,05,11,59,849.80
2020,07,05,12,00,853.00
2020,07,05,12,01,853.40
2020,07,05,12,02,853.50
2020,07,05,12,03,854.70
2020,07,05,12,04,854.70
2020,07,05,12,05,854.00
2020,07,05,12,06,857.80
2020,07,05,12,07,859.80
2020,07,05,12,08,858.40
2020,07,05,12,09,860.00
2020,07,05,12,10,860.40
2020,07,05,12,11,860.40
2020,07,05,12,12,860.60
2020,07,05,12,13,861.00
2020,07,05,12,14,862.70
2020,07,05,12,15,864.90
2020,07,05,12,16,867.00
2020,07,05,12,17,866.50
2020,07,05,12,18,866.20
2020,07,05,12,19,868.00
2020,07,05,12,20,867.50
2020,07,05,12,21,867.70
2020,07,05,12,22,869.50
2020,07,05,12,23,871.70
2020,07,05,12,24,873.70
2020,07,05,12,25,872.00
2020,07,05,12,26,872.60
2020,07,05,12,27,874.40
2020,07,05,12,28,875.00
2020,07,05,12,29,874.40
2020,07,05,12,30,874.70
2020,07,05,12,31,875.00
2020,07,05,12,32,878.40
2020,07,05,12,33,875.30
2020,07,05,12,34,877.50
2020,07,05,12,35,879.70
2020,07,05,12,36,881.00
2020,07,05,12,37,881.00
2020,07,05,12,38,881.70
2020,07,05,12,39,883.60
2020,07,05,12,40,881.50
2020,07,05,12,41,882.10
2020,07,05,12,42,884.00
2020,07,05,12,43,884.00
2020,07,05,12,44,884.00
2020,07,05,12,45,884.90
2020,07,05,12,46,886.00
2020,07,05,12,47,886.00
2020,07,05,12,48,886.00
2020,07,05,12,49,887.90
2020,07,05,12,50,888.70
2020,07,05,12,51,886.40
2020,07,05,12,52,888.30
2020,07,05,12,53,889.00
2020,07,05,12,54,889.00
2020,07,05,12,55,890.20
2020,07,05,12,56,891.00
2020,07,05,12,57,891.00
2020,07,05,12,58,891.00
2020,07,05,12,59,891.30
2020,07,05,13,00,892.40
2020,07,05,13,01,891.60
2020,07,05,13,02,893.00
2020,07,05,13,03,893.00
2020,07,05,13,04,894.40
2020,07,05,13,05,893.40
2020,07,05,13,06,893.00
2020,07,05,13,07,893.10
2020,07,05,13,08,894.60
2020,07,05,13,09,893.90
2020,07,05,13,10,896.80
2020,07,05,13,11,897.10
2020,07,05,13,12,895.40
2020,07,05,13,13,895.70
2020,07,05,13,14,895.20
2020,07,05,13,15,895.90
2020,07,05,13,16,895.80
2020,07,05,13,17,895.70
2020,07,05,13,18,897.10
2020,07,05,13,19,896.30
2020,07,05,13,20,898.00
2020,07,05,13,21,898.00
2020,07,05,13,22,898.00
2020,07,05,13,23,895.30
2020,07,05,13,24,895.90
2020,07,05,13,25,896.30
2020,07,05,13,26,898.60
2020,07,05,13,27,898.40
2020,07,05,13,28,896.90
2020,07,05,13,29,896.30
2020,07,05,13,30,895.70
2020,07,05,13,31,896.00
2020,07,05,13,32,895.20
2020,07,05,13,33,895.00
2020,07,05,13,34,895.20
2020,07,05,13,35,896.00
2020,07,05,13,36,895.60
2020,07,05,13,37,895.50
2020,07,05,13,38,894.10
2020,07,05,13,39,895.20
2020,07,05,13,40,896.00
2020,07,05,13,41,896.00
2020,07,05,13,42,896.30
2020,07,05,13,43,897.20
2020,07,05,13,44,895.30
2020,07,05,13,45,895.50
2020,07,05,13,46,892.70
2020,07,05,13,47,893.70
2020,07,05,13,48,893.50
2020,07,05,13,49,893.00
2020,07,05,13,50,891.20
2020,07,05,13,51,892.20
2020,07,05,13,52,889.60
2020,07,05,13,53,891.00
2020,07,05,13,54,891.00
2020,07,05,13,55,892.30
2020,07,05,13,56,890.10
2020,07,05,13,57,890.60
2020,07,05,13,58,890.90
2020,07,05,13,59,889.00
2020,07,05,14,00,888.40
2020,07,05,14,01,886.60
2020,07,05,14,02,888.50
2020,07,05,14,03,887.30
2020,07,05,14,04,887.30
2020,07,05,14,05,886.50
2020,07,05,14,06,884.20
2020,07,05,14,07,885.80
2020,07,05,14,08,884.00
2020,07,05,14,09,883.20
2020,07,05,14,10,882.10
2020,07,05,14,11,883.00
2020,07,05,14,12,882.00
2020,07,05,14,13,881.30
2020,07,05,14,14,881.00
2020,07,05,14,15,881.00
2020,07,05,14,16,879.20
2020,07,05,14,17,880.60
2020,07,05,14,18,879.00
2020,07,05,14,19,879.00
2020,07,05,14,20,878.00
2020,07,05,14,21,877.00
2020,07,05,14,22,877.00
2020,07,05,14,23,875.40
2020,07,05,14,24,875.00
2020,07,05,14,25,874.80
2020,07,05,14,26,874.00
2020,07,05,14,27,873.30
2020,07,05,14,28,872.90
2020,07,05,14,29,874.00
2020,07,05,14,30,872.70
2020,07,05,14,31,870.40
2020,07,05,14,32,868.20
2020,07,05,14,33,867.10
2020,07,05,14,34,866.70
2020,07,05,14,35,865.00
2020,07,05,14,36,865.00
2020,07,05,14,37,864.10
2020,07,05,14,38,863.00
2020,07,05,14,39,861.60
2020,07,05,14,40,860.20
2020,07,05,14,41,859.90
2020,07,05,14,42,858.00
2020,07,05,14,43,858.00
2020,07,05,14,44,857.40
2020,07,05,14,45,855.20
2020,07,05,14,46,853.50
2020,07,05,14,47,853.00
2020,07,05,14,48,851.40
2020,07,05,14,49,851.00
2020,07,05,14,50,849.20
2020,07,05,14,51,850.60
2020,07,05,14,52,848.40
2020,07,05,14,53,846.60
2020,07,05,14,54,846.50
2020,07,05,14,55,846.40
2020,07,05,14,56,844.60
2020,07,05,14,57,844.00
2020,07,05,14,58,842.30
2020,07,05,14,59,844.00
2020,07,05,15,00,843.60
2020,07,05,15,01,841.40
2020,07,05,15,02,840.00
2020,07,05,15,03,840.00
2020,07,05,15,04,840.00
2020,07,05,15,05,840.00
2020,07,05,15,06,840.00
2020,07,05,15,07,839.90
2020,07,05,15,08,828.80
2020,07,05,15,09,789.40
2020,07,05,15,10,821.00
2020,07,05,15,11,833.90
2020,07,05,15,12,832.90
2020,07,05,15,13,828.90
2020,07,05,15,14,826.40
2020,07,05,15,15,826.00
2020,07,05,15,16,822.70
2020,07,05,15,17,816.50
2020,07,05,15,18,812.70
2020,07,05,15,19,809.60
2020,07,05,15,20,809.00
2020,07,05,15,21,810.90
2020,07,05,15,22,813.40
2020,07,05,15,23,814.00
2020,07,05,15,24,810.20
2020,07,05,15,25,808.30
2020,07,05,15,26,797.90
2020,07,05,15,27,807.10
2020,07,05,15,28,803.80
2020,07,05,15,29,805.00
2020,07,05,15,30,803.10
2020,07,05,15,31,800.50
2020,07,05,15,32,801.80
2020,07,05,15,33,797.90
2020,07,05,15,34,767.40
2020,07,05,15,35,792.30
2020,07,05,15,36,794.10
2020,07,05,15,37,790.10
2020,07,05,15,38,789.00
2020,07,05,15,39,785.60
2020,07,05,15,40,785.60
2020,07,05,15,41,770.00
2020,07,05,15,42,766.80
2020,07,05,15,43,781.40
2020,07,05,15,44,779.00
2020,07,05,15,45,777.20
2020,07,05,15,46,776.10
2020,07,05,15,47,777.00
2020,07,05,15,48,771.80
2020,07,05,15,49,766.70
2020,07,05,15,50,760.20
2020,07,05,15,51,767.70
2020,07,05,15,52,766.00
2020,07,05,15,53,766.60
2020,07,05,15,54,766.60
2020,07,05,15,55,765.50
2020,07,05,15,56,768.70
2020,07,05,15,57,768.50
2020,07,05,15,58,753.80
2020,07,05,15,59,771.10
2020,07,05,16,00,773.30
2020,07,05,16,01,775.60
2020,07,05,16,02,777.80
2020,07,05,16,03,779.50
2020,07,05,16,04,782.50
2020,07,05,16,05,770.30
2020,07,05,16,06,734.70
2020,07,05,16,07,776.20
2020,07,05,16,08,733.00
2020,07,05,16,09,733.00
2020,07,05,16,10,733.00
2020,07,05,16,11,647.90
2020,07,05,16,12,549.30
2020,07,05,16,13,530.80
2020,07,05,16,14,457.70
2020,07,05,16,15,510.60
2020,07,05,16,16,497.20
2020,07,05,16,17,453.10
2020,07,05,16,18,479.30
2020,07,05,16,19,442.60
2020,07,05,16,20,444.50
2020,07,05,16,21,440.40
2020,07,05,16,22,447.10
2020,07,05,16,23,460.40
2020,07,05,16,24,484.60
2020,07,05,16,25,534.50
2020,07,05,16,26,506.00
2020,07,05,16,27,441.20
2020,07,05,16,28,413.80
2020,07,05,16,29,394.20
2020,07,05,16,30,392.90
2020,07,05,16,31,416.60
2020,07,05,16,32,459.40
2020,07,05,16,33,425.90
2020,07,05,16,34,419.00
2020,07,05,16,35,425.80
2020,07,05,16,36,431.00
2020,07,05,16,37,431.00
2020,07,05,16,38,443.20
2020,07,05,16,39,465.00
2020,07,05,16,40,429.70
2020,07,05,16,41,422.60
2020,07,05,16,42,415.00
2020,07,05,16,43,425.30
2020,07,05,16,44,464.00
2020,07,05,16,45,509.10
2020,07,05,16,46,615.00
2020,07,05,16,47,622.50
2020,07,05,16,48,596.00
2020,07,05,16,49,596.00
2020,07,05,16,50,579.00
2020,07,05,16,51,578.00
2020,07,05,16,52,578.00
2020,07,05,16,53,604.20
2020,07,05,16,54,659.40
2020,07,05,16,55,679.90
2020,07,05,16,56,678.20
2020,07,05,16,57,601.00
2020,07,05,16,58,598.90
2020,07,05,16,59,648.60
2020,07,05,17,00,641.10
2020,07,05,17,01,635.20
2020,07,05,17,02,632.30
2020,07,05,17,03,629.60
2020,07,05,17,04,625.50
2020,07,05,17,05,624.00
2020,07,05,17,06,627.20
2020,07,05,17,07,630.70
2020,07,05,17,08,634.80